[[{"header":{"parameterUnit":"m.s-1","parameterCategory":1,"la1":30.2991,"la2":30.254,"lo1":-89.0895,"lo2":-89.0444,"dy":0.0017,"dx":0.0017,"nx":28,"ny":28,"refTime":"2024-08-07T21:00:00:Z","depth":0,"parameterNumber":2,"parameterNumberName":"U-component_of_WINDS"},"data":[0,0,0,0,0,0,0,0,0,0,0,0,0,0,0,0,0,0,0,0,0,0,0,0,0,0,0,0,0,0,0,0,0,0,0,0,0,0,0,0,0,0,0,0,0,0,0,0,0,0,0,0,0,0,0,0,0,0,0.8606,0.8608,0,0.8728,0.8729,0.8731,0.8802,0.8802,0.8802,0.8803,0.8931,0.8934,0.8937,0,0,0,0,0,0,0,0,0,0,0,0,0,0.8439,0.8442,0.8606,0.8608,0.8609,0.8728,0.8729,0.8731,0.8802,0.8802,0.8802,0.8803,0.893,0.8933,0.8937,0,0,0,0,0,0,0,0,0,0,0,0,0,0.8532,0.8443,0.8606,0.8659,0.8665,0.8727,0.8729,0.8732,0.8802,0.8802,0.8802,0.8803,0.8928,0.8933,0.8938,0.8959,0,0,0.8952,0.8954,0,0,0,0,0,0,0,0,0.8526,0.8538,0.865,0.8655,0.8662,0.875,0.8718,0.8808,0.8802,0.875,0.8803,0.8803,0.8871,0.888,0.8902,0.8965,0.897,0.8953,0.8955,0.8958,0.8959,0,0,0,0,0,0,0,0.852,0.8533,0.8655,0.8651,0.8659,0.8678,0.8691,0.8735,0.8806,0.8754,0.876,0.8773,0.8874,0.8897,0.8906,0.8972,0.8952,0.8957,0.896,0.8961,0.9059,0.9059,0,0,0,0,0,0,0.8504,0.8527,0.8651,0.8658,0.8594,0.868,0.8696,0.8721,0.8806,0.8819,0.8772,0.8776,0.8889,0.89,0.891,0.8941,0.8957,0.8962,0.8965,0.9059,0.9059,0.9059,0,0,0,0,0,0,0.8501,0.8515,0.8646,0.8594,0.8612,0.8683,0.8711,0.8724,0.8747,0.882,0.8833,0.8783,0.889,0.8904,0.8946,0.8946,0.8964,0.8968,0.9059,0.9059,0.9059,0.9001,0,0,0,0,0,0,0.8495,0.8513,0.8521,0.8594,0.8615,0.8678,0.8711,0.8726,0.8754,0.876,0.8833,0.8846,0.8891,0.8939,0.8951,0.8953,0.8972,0.906,0.9059,0.9059,0.9003,0.8999,0.8995,0,0,0,0,0,0.8489,0.85,0.8521,0.8535,0.8625,0.8678,0.869,0.8741,0.8754,0.8763,0.881,0.8843,0.8944,0.8942,0.8957,0.896,0.906,0.9059,0.9059,0.9005,0.9,0.8995,0,0,0,0,0,0,0.8427,0.8511,0.8534,0.8569,0.8615,0.869,0.8702,0.8733,0.8778,0.8782,0.8845,0.886,0.8897,0.8933,0.8929,0.8986,0.9006,0.9008,0.896,0.8956,0.8952,0.8942,0.8976,0,0,0,0,0,0.8417,0.8451,0.8523,0.8547,0.8569,0.8631,0.8656,0.8691,0.8743,0.8763,0.8813,0.8863,0.8906,0.8933,0.8977,0.9009,0.9027,0.9019,0.9015,0.9011,0.9012,0.9033,0.9031,0.9057,0.9057,0.9057,0,0,0.8397,0.8447,0.8465,0.8535,0.8576,0.8611,0.8647,0.8683,0.871,0.8769,0.8812,0.885,0.891,0.8947,0.8967,0.8979,0.9009,0.901,0.9007,0.901,0.9032,0.903,0.9027,0.9056,0.9056,0.9056,0,0,0.8378,0.8419,0.8444,0.8483,0.8543,0.8585,0.859,0.866,0.8687,0.8731,0.8776,0.881,0.8882,0.8923,0.8953,0.8951,0.8983,0.8963,0.8942,0.8961,0.8959,0.8958,0.8957,0.8956,0.8964,0.8964,0.8964,0,0.8347,0.84,0.8453,0.8486,0.8516,0.8569,0.8595,0.8631,0.8703,0.8723,0.8735,0.8828,0.8872,0.892,0.8919,0.8942,0.8952,0.8955,0.8955,0.8954,0.8953,0.8954,0.8953,0.8961,0.8962,0.8962,0.8962,0,0.8358,0.8394,0.8407,0.8473,0.8505,0.8534,0.8593,0.8619,0.8651,0.8692,0.8736,0.8791,0.8847,0.8861,0.8894,0.8914,0.892,0.8943,0.8965,0.8947,0.8949,0.8949,0.8957,0.8958,0.8959,0.896,0,0,0.8304,0.8398,0.8402,0.8433,0.8503,0.8533,0.8565,0.8619,0.864,0.8688,0.8717,0.8777,0.8799,0.8833,0.8871,0.8888,0.8884,0.891,0.8912,0.8903,0.891,0.8893,0.8892,0.8906,0.8906,0.8906,0.8906,0,0.8296,0.8354,0.8403,0.8444,0.8479,0.853,0.8559,0.8606,0.8645,0.8681,0.8725,0.8767,0.8792,0.8813,0.8832,0.888,0.8886,0.8881,0.8935,0.8936,0.8918,0.8893,0.8874,0.8871,0.8906,0.8907,0.8907,0,0.8294,0.8338,0.8382,0.8449,0.8466,0.849,0.8543,0.8577,0.8631,0.8659,0.8697,0.8736,0.8774,0.8792,0.8846,0.8841,0.8867,0.8893,0.8895,0.8902,0.892,0.8899,0.8871,0.887,0.8908,0.8908,0.8908,0,0.825,0.8321,0.8357,0.8382,0.846,0.8476,0.851,0.8565,0.8594,0.8641,0.8661,0.8712,0.874,0.878,0.8833,0.8841,0.8881,0.8903,0.8906,0.8905,0.8912,0.8911,0.8888,0.8928,0.8928,0.8928,0.8928,0,0.8236,0.8261,0.8338,0.836,0.839,0.8446,0.8475,0.8514,0.8562,0.8594,0.8642,0.8671,0.8739,0.8776,0.8818,0.8857,0.8869,0.8894,0.8904,0.8889,0.8886,0.8907,0.8908,0.8928,0.8928,0.8928,0.8928,0,0.8193,0.8245,0.8287,0.8357,0.8376,0.8395,0.8456,0.848,0.8522,0.8561,0.8574,0.864,0.8687,0.8743,0.8809,0.8837,0.8872,0.8888,0.8852,0.8859,0.8858,0.8858,0.8848,0.8849,0.8888,0.8887,0.8887,0,0.818,0.82,0.8273,0.8296,0.8328,0.8366,0.8396,0.8453,0.8482,0.8546,0.8562,0.8612,0.8655,0.8728,0.8783,0.8834,0.8852,0.8845,0.886,0.8844,0.8852,0.885,0.8853,0.884,0.884,0.8839,0.8839,0,0.8153,0.8178,0.8217,0.8266,0.83,0.8341,0.8385,0.8402,0.8469,0.8499,0.8547,0.858,0.8646,0.8696,0.8753,0.879,0.8826,0.8834,0.8837,0.8822,0.88,0.8812,0.8842,0.8834,0.8834,0.8834,0.8835,0.8835,0.8125,0.8145,0.8199,0.8242,0.8281,0.8321,0.8347,0.8391,0.8431,0.8488,0.852,0.8567,0.8623,0.8703,0.8739,0.8778,0.879,0.8795,0.8796,0.8797,0.8792,0.8794,0.8788,0.8789,0.8789,0.8789,0.8789,0,0.8101,0.8138,0.8176,0.8235,0.8269,0.8298,0.8349,0.8376,0.8416,0.8464,0.8505,0.856,0.8608,0.8667,0.8719,0.8739,0.8757,0.8751,0.875,0.8759,0.8778,0.877,0.8736,0.8736,0.8736,0.8736,0.8736,0.8736,0.8092,0.8128,0.8159,0.8215,0.8253,0.8297,0.8324,0.8361,0.84,0.8458,0.8498,0.8536,0.8588,0.8645,0.8692,0.8708,0.8725,0.8715,0.8736,0.8753,0.8757,0.8762,0.8754,0.8718,0.8718,0.8714,0.8714,0.8713]},{"header":{"parameterUnit":"m.s-1","parameterCategory":1,"la1":30.2991,"la2":30.254,"lo1":-89.0895,"lo2":-89.0444,"dy":0.0017,"dx":0.0017,"nx":28,"ny":28,"refTime":"2024-08-07T21:00:00:Z","depth":0,"parameterNumber":3,"parameterNumberName":"V-component_of_WINDS"},"data":[0,0,0,0,0,0,0,0,0,0,0,0,0,0,0,0,0,0,0,0,0,0,0,0,0,0,0,0,0,0,0,0,0,0,0,0,0,0,0,0,0,0,0,0,0,0,0,0,0,0,0,0,0,0,0,0,0,0,-6.0215,-6.0216,0,-6.0338,-6.0339,-6.0341,-6.0308,-6.0306,-6.0303,-6.0301,-6.0419,-6.0424,-6.043,0,0,0,0,0,0,0,0,0,0,0,0,0,-5.9949,-5.9954,-6.0215,-6.0217,-6.0218,-6.0338,-6.0339,-6.0341,-6.0308,-6.0306,-6.0303,-6.03,-6.0417,-6.0424,-6.043,0,0,0,0,0,0,0,0,0,0,0,0,0,-6.0067,-5.9955,-6.0215,-6.0217,-6.0218,-6.0337,-6.0339,-6.0341,-6.0309,-6.0305,-6.0302,-6.0298,-6.0415,-6.0423,-6.0431,-6.0554,0,0,-6.0456,-6.0459,0,0,0,0,0,0,0,0,-6.006,-6.0077,-6.0215,-6.0217,-6.0218,-6.0304,-6.0289,-6.0412,-6.031,-6.0274,-6.0301,-6.0297,-6.0383,-6.0394,-6.0424,-6.0559,-6.0564,-6.0456,-6.0461,-6.0465,-6.0467,0,0,0,0,0,0,0,-6.0052,-6.0071,-6.0263,-6.0217,-6.0219,-6.021,-6.0223,-6.0312,-6.0347,-6.0277,-6.0275,-6.029,-6.0383,-6.0417,-6.0427,-6.0566,-6.0456,-6.0463,-6.0468,-6.0471,-6.0811,-6.0815,0,0,0,0,0,0,-6.0043,-6.0065,-6.0259,-6.0267,-6.0129,-6.0218,-6.0232,-6.028,-6.0346,-6.0353,-6.0293,-6.0288,-6.0405,-6.0417,-6.0431,-6.058,-6.0465,-6.0472,-6.0477,-6.0807,-6.0812,-6.0816,0,0,0,0,0,0,-6.0038,-6.0061,-6.0254,-6.0166,-6.0189,-6.0226,-6.028,-6.0284,-6.0318,-6.0359,-6.0364,-6.0321,-6.0402,-6.0419,-6.0525,-6.0584,-6.0476,-6.0483,-6.0802,-6.0808,-6.0814,-6.0879,0,0,0,0,0,0,-6.003,-6.0059,-6.0107,-6.0167,-6.0194,-6.0347,-6.0284,-6.0289,-6.0333,-6.0327,-6.0386,-6.0392,-6.0401,-6.0513,-6.0533,-6.0593,-6.049,-6.0796,-6.0804,-6.0812,-6.0872,-6.0887,-6.09,0,0,0,0,0,-6.0021,-6.0118,-6.0109,-6.0133,-6.0255,-6.0351,-6.0366,-6.0376,-6.0338,-6.0385,-6.0413,-6.0391,-6.0575,-6.0524,-6.0546,-6.061,-6.0793,-6.0802,-6.0811,-6.0866,-6.0884,-6.09,0,0,0,0,0,0,-6.0059,-6.0125,-6.0117,-6.0236,-6.0289,-6.0345,-6.0405,-6.0395,-6.0457,-6.0449,-6.0456,-6.047,-6.0578,-6.0604,-6.0546,-6.0734,-6.0678,-6.0692,-6.0712,-6.073,-6.0743,-6.0734,-6.0496,0,0,0,0,0,-6.0083,-6.0157,-6.021,-6.0311,-6.0338,-6.0368,-6.041,-6.0414,-6.0467,-6.0488,-6.0522,-6.0573,-6.0643,-6.0688,-6.0754,-6.0877,-6.0889,-6.0932,-6.0946,-6.0957,-6.0969,-6.1038,-6.1057,-6.0847,-6.0847,-6.0846,0,0,-6.013,-6.0175,-6.0221,-6.032,-6.0361,-6.0436,-6.0386,-6.0467,-6.0523,-6.0499,-6.0601,-6.0629,-6.0686,-6.0802,-6.0854,-6.0827,-6.1031,-6.0969,-6.0978,-6.0983,-6.1049,-6.1069,-6.1087,-6.0853,-6.0852,-6.0851,0,0,-6.0254,-6.0297,-6.0386,-6.043,-6.0494,-6.0514,-6.0536,-6.0596,-6.0614,-6.0718,-6.0703,-6.0769,-6.0888,-6.093,-6.0967,-6.1115,-6.1097,-6.1136,-6.1208,-6.1275,-6.1291,-6.1306,-6.1359,-6.1378,-6.1148,-6.1148,-6.1148,0,-6.0304,-6.0419,-6.0433,-6.0518,-6.0562,-6.0548,-6.0639,-6.068,-6.0761,-6.0791,-6.0761,-6.0914,-6.0951,-6.1077,-6.1114,-6.1144,-6.1169,-6.1128,-6.1289,-6.1303,-6.1317,-6.1368,-6.1387,-6.1152,-6.1152,-6.1151,-6.1151,0,-6.0477,-6.0558,-6.0623,-6.0706,-6.0758,-6.0845,-6.0871,-6.0922,-6.0923,-6.0946,-6.1053,-6.1098,-6.1175,-6.1206,-6.1205,-6.1333,-6.1314,-6.1287,-6.123,-6.1342,-6.1389,-6.1408,-6.1158,-6.1157,-6.1156,-6.1155,0,0,-6.0624,-6.0719,-6.0743,-6.0782,-6.0855,-6.0916,-6.1004,-6.1082,-6.1126,-6.1184,-6.1257,-6.1361,-6.1338,-6.138,-6.1385,-6.1444,-6.1559,-6.1409,-6.1411,-6.1435,-6.1703,-6.1723,-6.1745,-6.1549,-6.1553,-6.1556,-6.1698,0,-6.0755,-6.0912,-6.0929,-6.1068,-6.1143,-6.1134,-6.121,-6.1263,-6.1288,-6.1355,-6.1382,-6.1456,-6.1419,-6.1445,-6.1503,-6.1533,-6.1613,-6.1523,-6.1616,-6.1619,-6.16,-6.1769,-6.1789,-6.1921,-6.1717,-6.172,-6.1722,0,-6.0927,-6.0995,-6.1143,-6.1209,-6.1241,-6.1309,-6.1384,-6.1449,-6.1509,-6.1523,-6.1574,-6.1572,-6.1662,-6.1605,-6.1729,-6.1668,-6.1707,-6.1728,-6.1734,-6.1741,-6.1676,-6.178,-6.1963,-6.1983,-6.1752,-6.1749,-6.1747,0,-6.102,-6.1148,-6.1254,-6.1288,-6.1367,-6.1416,-6.1451,-6.1508,-6.1555,-6.1621,-6.1651,-6.1725,-6.1765,-6.1822,-6.1841,-6.1798,-6.1964,-6.1908,-6.1978,-6.1977,-6.201,-6.2008,-6.2202,-6.2039,-6.2038,-6.2038,-6.2038,0,-6.1163,-6.1254,-6.1297,-6.1362,-6.1464,-6.1483,-6.1583,-6.1615,-6.1667,-6.1737,-6.1734,-6.1799,-6.1821,-6.189,-6.1905,-6.2006,-6.2024,-6.2038,-6.204,-6.2037,-6.2036,-6.2061,-6.2052,-6.2043,-6.2042,-6.2041,-6.204,0,-6.1282,-6.1315,-6.143,-6.1499,-6.1518,-6.159,-6.1648,-6.171,-6.1737,-6.1826,-6.1848,-6.1889,-6.1971,-6.1996,-6.2094,-6.2104,-6.2222,-6.2217,-6.2203,-6.2202,-6.227,-6.2263,-6.2486,-6.2516,-6.2335,-6.2336,-6.2338,0,-6.1371,-6.1441,-6.1519,-6.1568,-6.1606,-6.1683,-6.1733,-6.1757,-6.1808,-6.1885,-6.1938,-6.2021,-6.2087,-6.2218,-6.2256,-6.2331,-6.2327,-6.24,-6.2338,-6.2334,-6.2328,-6.2323,-6.233,-6.2411,-6.2413,-6.2414,-6.2415,0,-6.1524,-6.1538,-6.1612,-6.1693,-6.1753,-6.1817,-6.1878,-6.1918,-6.195,-6.2008,-6.2094,-6.2147,-6.2249,-6.2331,-6.2409,-6.2443,-6.2435,-6.2436,-6.2456,-6.2452,-6.2441,-6.2448,-6.2233,-6.2429,-6.2428,-6.2427,-6.2426,-6.2426,-6.163,-6.1693,-6.1759,-6.1842,-6.1892,-6.1951,-6.2014,-6.2051,-6.2124,-6.2211,-6.2221,-6.2314,-6.2375,-6.2479,-6.2518,-6.259,-6.2569,-6.2598,-6.2605,-6.2611,-6.2617,-6.2432,-6.2604,-6.2604,-6.2604,-6.2603,-6.2603,0,-6.1783,-6.1827,-6.1903,-6.1992,-6.2057,-6.2049,-6.2117,-6.2172,-6.2255,-6.2314,-6.2382,-6.2482,-6.2563,-6.2609,-6.2689,-6.2738,-6.2736,-6.2758,-6.2754,-6.2762,-6.2631,-6.2606,-6.2758,-6.2758,-6.2758,-6.2758,-6.2758,-6.2758,-6.187,-6.1977,-6.2,-6.2133,-6.2175,-6.2269,-6.2309,-6.2364,-6.2412,-6.2525,-6.2593,-6.2624,-6.2678,-6.2764,-6.2837,-6.2849,-6.2878,-6.2902,-6.2911,-6.2787,-6.2771,-6.2756,-6.2732,-6.2908,-6.2909,-6.3036,-6.3037,-6.3038]}]]